SCP
0 1 1 1 1 1 0 0 0 0 0 0 0 0 0 0 0 0 0 0 0 0 0 0 0 0 0 0 0 0 0 0 0 0 0 0 0 0 0 0 0 0 0
1 1 1 1 1 1 1 0 0 0 0 0 0 0 0 0 0 0 0 0 0 0 0 0 0 0 0 0 0 0 0 0 0 0 0 0 0 0 0 0 0 0 0
1 1 1 1 1 1 1 1 1 0 0 0 0 0 0 0 0 0 0 0 0 0 0 0 0 0 0 0 0 0 0 0 0 0 0 0 0 0 0 0 0 0 0
1 1 1 1 1 1 1 1 1 0 0 0 0 0 0 0 0 0 0 0 0 0 0 0 0 0 0 0 0 0 0 0 0 0 0 0 0 0 0 0 0 0 0
1 1 1 1 1 1 1 1 1 1 0 0 0 0 0 0 0 0 0 0 0 0 0 0 0 0 0 0 0 0 0 0 0 0 0 0 0 0 0 0 0 0 0
1 1 1 1 1 1 1 1 1 1 1 0 0 0 0 0 0 0 0 0 0 0 0 0 0 0 0 0 0 0 0 0 0 0 0 0 0 0 0 0 0 0 0
1 1 1 1 1 1 1 1 1 1 1 1 1 0 0 0 0 0 0 0 0 0 0 0 0 0 0 0 0 0 0 0 0 0 0 0 0 0 0 0 0 0 0
1 1 1 1 2 2 1 1 1 1 1 1 1 1 0 0 0 0 0 0 0 0 0 0 0 0 0 0 0 0 0 0 0 0 0 0 0 0 0 0 0 0 0
1 1 1 2 2 2 2 2 1 1 1 1 1 1 1 0 0 0 0 0 0 0 0 0 0 0 0 0 0 0 0 0 0 0 0 0 0 0 0 0 0 0 0
1 1 1 2 2 2 2 2 1 1 1 1 1 1 1 1 0 0 0 0 0 0 0 0 0 0 0 0 0 0 0 0 0 0 0 0 0 0 0 0 0 0 0
1 2 2 2 2 2 2 2 2 2 2 1 1 1 1 1 1 1 1 0 0 0 0 0 1 0 0 0 0 0 0 0 0 0 0 0 0 0 0 0 0 0 0
2 2 2 2 2 2 2 2 2 2 2 2 1 1 1 1 1 1 1 1 1 1 1 1 1 0 0 0 0 0 0 0 0 0 0 0 0 0 0 0 0 0 0
2 2 2 2 2 2 2 2 2 2 2 2 2 1 1 1 1 1 1 1 1 1 1 1 1 1 0 0 0 0 0 0 0 0 0 0 0 0 0 0 0 0 0
3 2 2 2 2 2 3 2 1 2 2 2 2 1 1 1 1 1 1 1 1 1 1 1 1 1 0 0 0 0 0 0 0 0 0 0 0 0 0 0 0 0 0
2 2 2 2 2 2 2 2 2 2 2 2 1 1 1 1 1 1 1 1 1 1 1 1 1 1 1 0 0 0 0 0 0 0 0 0 0 0 0 0 0 0 0
2 2 2 2 2 1 1 1 1 2 2 2 1 1 1 1 1 1 1 1 1 1 1 1 1 1 1 1 0 1 1 0 0 0 0 0 0 0 0 0 0 0 0
2 2 2 1 1 1 1 1 1 1 1 1 1 1 1 1 1 1 1 1 1 1 1 1 1 1 1 1 0 0 1 1 0 0 0 0 0 0 0 0 0 0 0
2 2 2 1 1 1 1 1 1 1 1 1 1 1 1 1 2 2 1 1 1 1 1 1 1 1 1 1 0 0 1 1 0 0 0 0 0 0 0 0 0 0 0
2 2 2 1 1 1 1 1 1 1 1 1 1 1 1 2 2 2 2 2 2 2 2 1 1 1 1 0 0 0 0 0 0 0 0 0 0 0 0 0 0 0 0
1 1 1 1 1 1 1 1 1 1 1 1 1 1 1 1 2 2 2 2 2 2 2 1 1 1 1 0 0 0 0 0 0 0 0 0 0 0 0 0 0 0 0
1 1 1 1 1 1 1 1 1 1 1 1 1 1 1 1 1 1 1 1 1 2 2 1 1 1 1 0 0 0 0 0 0 0 0 0 0 0 0 0 0 0 0
1 1 1 1 1 1 1 1 1 1 0 1 1 1 1 1 1 1 1 1 1 1 1 1 1 1 1 0 0 0 0 0 0 0 0 0 0 0 0 0 0 0 0
1 1 0 0 0 0 0 0 0 0 0 0 0 1 1 1 1 1 1 1 1 1 1 1 1 1 1 0 0 0 0 0 0 0 0 0 0 0 0 0 0 0 0
0 0 0 0 0 0 0 0 0 0 0 0 0 0 1 1 1 0 0 0 0 0 0 0 0 1 1 0 0 0 0 0 0 0 0 0 0 0 0 0 0 0 0
0 0 0 0 0 0 0 0 0 0 0 0 0 0 0 0 0 0 0 0 0 0 0 0 0 0 0 0 0 0 0 0 0 0 0 0 0 0 0 0 0 0 0
0 0 0 0 0 0 0 0 0 0 0 0 0 0 0 0 0 0 0 0 0 0 0 0 0 0 0 0 0 0 0 0 0 0 0 0 0 0 0 0 0 0 0
Wind_Speed
10 11 11 12 11 9 9 9 8 7 5 3 3 3 2 2 2 3 4 5 5 5 4 3 3 3 3 3 3 2 2 1 1 1 1 2 2 2 2 3 3 4 5
9 10 10 10 11 11 10 10 9 8 7 5 4 3 3 2 3 2 3 5 5 5 5 4 3 3 3 3 3 2 2 1 2 2 1 2 3 3 2 2 2 3 3
15 14 13 12 11 11 12 11 10 9 8 6 3 2 2 1 1 2 2 3 5 5 4 5 4 3 3 3 3 3 3 2 1 2 3 2 3 2 3 2 1 2 2
13 14 14 14 14 13 11 10 10 9 8 7 6 6 5 4 4 3 3 3 4 4 4 4 5 4 3 3 3 4 3 3 2 1 2 3 3 2 2 3 2 2 2
14 15 15 15 14 13 11 10 10 9 8 8 8 6 5 4 3 3 4 4 3 3 4 4 4 4 3 3 3 3 3 3 3 2 2 1 1 2 2 2 3 2 2
13 13 12 11 10 11 10 10 10 9 9 8 8 8 7 6 5 4 4 4 3 2 4 4 4 4 3 4 4 3 3 3 3 3 2 2 2 2 3 3 2 2 2
12 12 11 12 12 12 11 10 11 9 9 9 8 8 8 7 7 6 5 4 3 3 4 4 4 3 4 4 3 3 3 3 3 3 3 3 3 3 3 2 2 2 2
10 11 12 13 13 13 12 11 11 10 10 9 8 7 7 5 5 6 5 5 4 4 4 4 4 4 4 4 3 3 3 2 3 3 3 2 2 2 3 3 2 1 1
8 9 11 11 12 12 12 12 11 10 10 9 8 6 6 6 6 5 5 4 4 4 5 5 4 4 4 4 3 2 3 2 2 2 2 2 2 2 2 2 3 3 2
7 7 9 10 10 10 10 10 10 11 9 9 8 7 6 6 5 5 5 5 5 4 4 4 5 4 4 4 4 3 2 3 3 2 3 2 2 2 1 2 2 3 3
7 7 8 9 8 8 8 8 9 8 8 8 7 6 6 5 5 5 6 5 5 5 5 5 5 4 4 4 4 4 3 4 3 3 3 4 3 2 1 1 1 2 2
5 5 6 7 7 7 6 7 7 8 8 8 7 7 6 6 5 5 6 5 5 5 5 5 5 5 4 4 4 4 4 4 4 4 4 4 3 3 2 2 2 2 2
7 6 6 6 6 5 5 5 6 6 7 7 7 7 6 6 6 5 5 5 5 4 4 5 5 4 4 4 4 4 4 4 4 4 4 4 3 3 3 3 2 2 2
8 7 6 6 6 4 4 4 5 5 5 6 6 6 6 6 6 5 5 5 5 5 5 5 5 5 4 4 4 4 3 3 4 4 4 4 4 4 3 3 3 2 2
7 7 6 5 5 3 2 2 3 4 4 5 5 6 6 5 5 5 5 5 5 5 5 4 4 4 4 4 4 4 4 3 3 3 3 4 5 5 4 3 3 3 2
7 6 6 5 4 2 1 1 1 3 4 4 5 4 4 4 5 5 5 4 5 4 4 4 5 5 4 5 7 5 3 3 4 3 3 3 4 4 5 5 6 5 4
8 7 7 5 4 3 3 1 0 2 3 4 3 3 4 4 5 5 4 4 5 4 4 5 5 5 5 6 7 7 4 4 4 3 3 2 2 3 2 3 4 4 5
7 6 6 5 3 3 3 2 1 1 1 2 3 3 4 3 4 5 5 5 4 4 5 5 5 4 4 6 6 7 4 3 3 3 4 3 3 3 3 2 2 2 3
5 5 5 5 4 3 3 4 3 2 2 1 2 3 4 4 4 4 4 4 4 4 4 4 4 4 4 6 7 6 3 2 3 3 3 3 3 4 4 3 2 2 2
3 3 3 4 4 2 3 4 3 2 1 2 3 2 3 4 5 5 4 3 3 3 3 3 3 4 3 4 7 7 3 3 2 2 2 3 4 4 5 4 3 3 3
3 3 3 3 2 2 4 3 2 1 2 2 2 2 2 3 3 3 2 2 2 2 2 2 1 1 2 4 6 7 4 4 3 2 2 2 4 4 5 5 4 5 3
4 4 3 2 1 2 3 3 1 1 1 2 2 2 2 1 1 2 2 2 3 3 3 2 2 1 2 4 5 6 6 4 3 3 2 2 3 4 4 4 3 3 3
2 2 3 2 1 1 3 2 1 2 3 2 1 1 1 1 2 2 2 1 2 2 2 3 3 2 1 2 3 4 5 5 3 2 2 2 2 2 2 2 2 3 2
1 1 2 2 1 1 1 1 1 1 1 1 1 0 1 0 1 1 2 2 2 2 3 3 3 2 1 1 1 2 2 2 2 1 0 1 2 2 2 1 1 1 1
1 1 1 2 1 1 0 0 1 0 1 2 2 1 0 1 1 0 1 1 1 2 3 3 3 3 2 3 4 3 3 3 3 2 1 1 1 1 1 1 1 1 1
1 1 1 1 1 1 0 1 1 1 1 1 1 1 0 1 1 2 1 3 1 1 1 3 3 2 3 3 3 4 4 4 6 5 2 2 1 2 1 1 1 1 1
Wind_Direction
179 170 170 167 164 165 165 167 166 171 161 153 155 157 174 180 178 186 182 180 180 174 171 177 178 170 172 182 178 166 167 184 153 84 341 326 296 250 228 214 202 205 207
172 173 173 171 172 174 174 171 173 175 173 172 168 168 167 183 185 186 185 186 183 182 181 173 177 176 168 174 180 166 157 197 157 141 116 336 333 313 262 228 202 201 201
179 180 179 181 178 180 180 178 178 177 177 170 154 141 114 101 151 191 199 199 189 191 188 179 176 176 171 181 189 177 168 186 208 169 155 168 232 290 309 281 239 203 204
180 182 182 182 185 186 182 176 177 179 179 171 169 167 173 187 202 195 196 200 194 191 186 177 176 177 177 184 196 183 174 168 193 214 203 187 175 184 297 315 296 253 231
182 185 187 186 187 184 180 178 175 179 180 179 179 180 186 193 189 182 187 197 200 195 188 181 178 182 186 191 193 181 181 179 184 189 197 210 199 181 186 273 300 306 266
186 185 189 183 182 180 177 175 176 183 182 183 184 185 187 185 179 184 189 198 199 202 202 188 183 187 189 193 193 191 187 194 194 192 186 184 189 197 187 219 255 272 276
183 180 183 183 180 179 179 177 178 184 185 185 189 192 191 184 186 187 192 194 194 203 210 196 188 189 196 196 188 187 198 197 196 202 204 201 207 188 179 189 231 257 278
183 180 182 181 180 179 178 179 183 187 187 188 192 194 188 184 190 192 188 193 197 204 201 195 193 195 193 197 187 190 205 198 204 217 210 210 225 199 185 183 180 230 288
180 181 180 180 177 176 177 180 184 187 189 188 187 189 190 189 192 192 190 194 198 202 199 196 195 199 196 192 179 188 201 194 202 211 204 206 226 214 201 182 171 173 209
177 179 176 175 175 177 176 179 183 186 185 183 186 193 194 193 191 186 193 196 199 201 193 196 193 191 193 191 185 190 196 197 212 210 211 219 222 219 208 189 181 173 178
169 178 178 172 167 165 167 176 183 179 182 185 186 187 189 192 191 195 198 196 196 191 191 196 193 192 195 191 189 202 197 205 218 221 216 226 212 208 219 194 180 183 168
145 145 154 150 146 154 162 174 180 183 187 184 183 187 187 187 195 202 202 195 194 195 195 191 190 199 204 201 196 214 214 212 220 225 222 228 216 210 212 199 203 199 189
110 110 117 129 134 146 162 174 176 187 187 180 182 185 185 188 197 202 198 192 190 193 193 187 188 194 197 198 205 211 211 216 221 221 218 221 213 226 223 210 208 207 201
120 114 110 118 121 133 153 167 177 181 186 182 181 184 190 190 194 191 187 187 191 191 191 192 192 194 196 198 204 201 205 216 223 222 219 216 212 220 218 212 209 197 193
121 117 116 113 108 108 123 164 182 174 173 175 183 197 195 186 187 191 191 189 189 192 192 192 194 192 191 202 200 201 201 205 218 227 225 222 223 217 207 205 200 192 195
124 125 122 117 113 127 139 170 174 173 156 160 196 201 188 183 189 196 193 189 193 191 188 196 196 197 206 204 196 188 197 200 210 223 230 235 229 225 218 214 204 194 192
135 136 138 140 150 165 149 121 243 133 141 159 173 178 184 193 197 193 192 199 202 194 195 204 202 207 214 205 200 194 187 201 212 217 224 235 230 209 217 219 210 214 211
138 143 144 145 155 164 138 127 105 106 123 167 184 186 180 180 193 192 195 206 205 203 201 202 203 208 217 207 203 194 192 202 215 217 213 214 220 211 198 190 204 230 237
133 143 147 145 150 151 142 132 129 145 158 209 225 209 194 192 193 198 202 207 204 207 207 200 197 202 217 203 193 176 176 204 227 229 219 210 214 221 196 181 205 237 268
85 107 121 120 119 116 109 117 126 122 185 220 238 224 205 196 197 201 202 200 198 207 204 206 200 199 204 195 188 181 177 200 230 240 233 222 221 215 191 185 192 218 243
76 81 84 93 114 115 104 104 123 176 263 261 249 230 215 209 200 191 189 185 190 187 183 182 207 203 202 203 199 189 184 200 219 232 237 240 234 220 203 195 200 217 199
64 79 92 76 75 98 99 88 31 305 315 315 283 250 226 217 179 162 175 178 178 174 172 163 193 212 205 200 207 200 200 198 198 221 227 227 219 214 204 202 211 191 157
68 85 113 109 47 81 100 85 346 351 360 347 302 301 302 190 189 167 165 166 168 181 191 181 191 212 214 191 201 200 206 209 203 223 232 224 207 200 198 201 180 157 155
132 121 114 114 86 34 80 111 302 339 337 321 313 259 196 275 224 172 161 152 176 191 184 189 205 213 219 216 196 203 205 203 198 223 231 174 146 136 130 129 156 160 160
146 122 134 146 167 194 219 277 330 350 331 328 328 303 228 167 134 83 102 156 208 207 192 199 189 185 211 227 206 188 194 197 194 159 130 101 96 99 96 82 90 117 122
152 144 166 183 191 186 302 328 333 352 359 328 328 320 242 174 167 154 82 48 54 48 167 185 184 197 207 208 193 186 184 178 160 143 143 154 163 171 165 144 130 129 148